Regional Weather Roundup
Issued by NWS San Diego, CA

Home | Current Version | Previous Version | Text Only | Print | Product List | Glossary On
Versions: 1 2 3 4 5 6 7 8 9 10 11 12 13 14 15 16 17 18 19 20 21 22 23 24 25 26 27 28 29 30 31 32 33 34 35 36 37 38 39 40 41 42 43 44 45 46 47 48 49 50
000
ASUS46 KSGX 051311
RWRSGX

SAN DIEGO HOURLY WEATHER ROUNDUP
NATIONAL WEATHER SERVICE SAN DIEGO CA
600 AM PDT SUN JUL 05 2015

NOTE: "FAIR" INDICATES FEW OR NO CLOUDS BELOW 12,000 FEET WITH NO
SIGNIFICANT WEATHER AND/OR OBSTRUCTIONS TO VISIBILITY.

CAZ042-043-060-061-PZZ750-775-051400-

GREATER SAN DIEGO AREA

CITY           SKY/WX    TMP DP  RH WIND       PRES   REMARKS
LINDBERGH FLD  CLOUDY    66  57  72 W3        29.96S
POINT LOMA       N/A     64  58  81 NW6         N/A
NATIONAL CITY    N/A     66  60  81 N2        29.96R
CHULA VISTA      N/A     65  61  86 CALM      29.88R
IMPERIAL BEACH CLOUDY    66  59  78 NW8       29.96R
BROWN FIELD    CLOUDY    63  59  87 W6        29.95R
MIRAMAR MCAS   CLOUDY    66  58  75 W5        29.95R
MONTGOMERY FLD CLOUDY    64  59  83 W5        29.96R

$$

NORTH SAN DIEGO COUNTY

CITY           SKY/WX    TMP DP  RH WIND       PRES   REMARKS
CAMP PENDLETON CLOUDY    66  61  82 CALM      29.95R
OCEANSIDE AP   CLOUDY    66  62  87 CALM      29.94R
VISTA            N/A     65  60  84 CALM      29.93R
CARLSBAD       CLOUDY    64  61  90 SW5       29.95R
DEL MAR          N/A     64  61  91 CALM      29.97R
LA JOLLA SCRIP   N/A    N/A N/A N/A CALM      29.93R
FALLBROOK        N/A     65  64  98 CALM      29.95R
ESCONDIDO        N/A     65  61  86 W2        29.96R
SAN MARCOS       N/A     64  60  86 CALM      29.92R
POWAY            N/A     64  60  86 CALM      29.95R

$$

EAST SAN DIEGO COUNTY

CITY           SKY/WX    TMP DP  RH WIND       PRES   REMARKS
RAMONA         CLOUDY    61  58  90 VRB3      29.97R
LA MESA          N/A     63  59  88 CALM      29.70
JAMUL            N/A     63  59  87 CALM      29.93R
DESCANSO N       N/A     57  51  79 E3        29.78R
CAMPO            N/A     56  54  93 NE3       29.95R

$$

ORANGE COUNTY AND THE LOS ANGELES BASIN

CITY           SKY/WX    TMP DP  RH WIND       PRES   REMARKS
JOHN WAYNE AP  CLOUDY    66  59  78 S7        29.95R
LAKE FOREST FR   N/A     63  57  81 CALM      29.84R
SANTA ANA        N/A     66  61  83 CALM      29.90R
HUNTINGTON BCH   N/A     65  61  87 CALM      29.97R
LOS ALAMITOS   CLOUDY    66  61  82 CALM      29.95R
FULLERTON      CLOUDY    66  59  78 S3        29.94R
LONG BEACH     CLOUDY    67  59  75 S5        29.95R
L.A. AP        CLOUDY    64  60  87 W7        29.96R
L.A. DOWNTOWN  CLOUDY    66  58  75 CALM      29.94R

$$

THE INLAND EMPIRE

CITY           SKY/WX    TMP DP  RH WIND       PRES   REMARKS
CORONA         CLEAR     59  57  92 CALM      29.96R
CHINO          CLOUDY    65  60  84 W3        29.96R
ONTARIO        CLOUDY    63  58  83 W7        29.95R FOG
RIVERSIDE AP   CLOUDY    64  59  83 CALM      29.96R HAZE
MORENO VALLEY    N/A     61  60  96 CALM      29.92R
MARCH ARB      PTCLDY    59  59 100 W6        29.96R
HORSETHIEF CYN   N/A     59  54  85 CALM      29.95R
PERRIS           N/A     61  60  96 CALM        N/A
MENIFEE          N/A     63  61  95 CALM      30.01R
HEMET EAST       N/A     60  55  84 CALM      29.93R
FRENCH VALLEY  CLOUDY    63  59  88 CALM      29.96S
TEMECULA         N/A     64  61  91 S3        29.92R

$$

SAN BERNARDINO AND RIVERSIDE COUNTY MOUNTAINS

CITY           SKY/WX    TMP DP  RH WIND       PRES   REMARKS
BIG BEAR AP    CLEAR     46  37  71 CALM      30.25R
ANGELUS OAKS     N/A     63  47  56 CALM      29.72R
PINE COVE        N/A     67  49  52 CALM      29.79R

$$

SOUTHERN DESERT INCLUDING THE COACHELLA VALLEY

CITY           SKY/WX    TMP DP  RH WIND       PRES   REMARKS
PALM SPRINGS   CLEAR     82  57  42 NW7       29.83R
THOUSAND PALMS   N/A     83  56  38 W10       29.78R
PALM DESERT      N/A     81  59  47 CALM        N/A
THERMAL        CLEAR     80  58  46 N3        29.77R
BLYTHE         CLEAR     86  63  45 S7        29.81R
IMPERIAL AP    CLEAR     82  68  62 E5        29.77R
EL CENTRO NAS  CLEAR     79  67  66 E5        29.79R
YUMA AZ        CLEAR     84  72  67 SE16      29.80R

$$

UPPER DESERT

CITY           SKY/WX    TMP DP  RH WIND       PRES   REMARKS
VICTORVILLE AP CLEAR     72  46  40 CALM      29.96R HAZE
HESPERIA         N/A     70  48  44 W3        29.89R
APPLE VALLEY     N/A     64  51  64 CALM      30.04R
PALMDALE       CLEAR     70  46  42 CALM      29.95R
LANCASTER      CLEAR     70  49  47 SW6       29.94R
EDWARDS AFB    CLEAR     73  49  43 S5        29.91R
DAGGETT        CLEAR     77  46  33 W10       29.89R
29 PALMS N     CLEAR     79  47  32 VRB3      29.96R
NEEDLES        PTCLDY    92  56  29 W6        29.82R

$$

REGIONAL REPORTS

CITY           SKY/WX    TMP DP  RH WIND       PRES   REMARKS
SANTA BARBARA  CLOUDY    63  59  87 E5        29.96R
SANDBERG       CLEAR     67  51  56 SW8       30.07S
LAS VEGAS NV   PTCLDY    86  49  27 S10       29.84R
PHOENIX AZ     MOCLDY    89  59  36 W9        29.87R
TIJUANA        CLOUDY    64  55  72 W9        29.96R
ENSENADA NW      N/A     65  32  29 W6        29.93R

$$

OFFSHORE ISLANDS

CITY           SKY/WX    TMP DP  RH WIND       PRES   REMARKS
CATALINA ARPT  FOG       57  57 100 W7        29.98R VSB 1/4
SAN NICOLAS IS CLOUDY   N/A N/A N/A W10       29.97R

$$

MARINE AND OFFSHORE BUOY REPORTS

STATION/POSITION SKY/WX   TEMP    WIND        PRES    SWELL
                          AIR SEA DIR/SP/G            HT/PER/DIR
                          (F)     (DEG/KT/KT) (MB)    (FT/S/D)
TANNER BANKS               63 63  310/  6/  8 1014.6R   3/220/16
S CLEMENTE BASIN           63 68  310/ 10/ 12 1014.2R   3/180/16
SAN NICOLAS IS.               64                N/A     3/220/14
SO. S. ROSA ISLA           62 65  300/  8/ 10 1014.0R   3/16
W. S. BARBARA CH           60 60  310/  6/  8 1014.1R   2/190/14
M. S. BARBARA CH           61 62  190/ 10/ 12 1015.0R
S. MONICA BASIN            63 68  270/  4/  6 1014.5R   2/180/14
S PEDRO CHANNEL               67                N/A     2/170/17
DANA POINT                    68                N/A     2/210/14
OCEANSIDE OFFSHR              69                N/A     2/220/14
TORREY PINES OTR              70                N/A     2/210/14
LA JOLLA 1                 65 70  290/  4/  5 1013.7R
MISSION BAY BUOY              70                N/A     2/220/14
SAN DIEGO BAY                 71              1014.4R
POINT LOMA SOUTH              69                N/A     3/210/14

$$



USA.gov is the U.S. government's official web portal to all federal, state and local government web resources and services.